Denver, CO

5:12 AM MDT on September 25, 2017 (GMT -0600)
Front Range

Weather History for KFTG - January, 2013

Change the Weather History Date:

Sunday, January 27, 2013

  Actual Average (KBKF) Record (KBKF)
Temperature  
Mean Temperature 43 °F -  
Max Temperature 53 °F 43 °F 72 °F (2015)
Min Temperature 33 °F 21 °F -5 °F (2009)
Degree Days  
Heating Degree Days 22    
Moisture  
Dew Point 32 °F    
Average Humidity 79    
Maximum Humidity 100    
Minimum Humidity 46    
Precipitation  
Precipitation 0.00 in - - ()
Sea Level Pressure  
Sea Level Pressure 29.73 in    
Wind  
Wind Speed 7 mph (SW)    
Max Wind Speed 16 mph    
Max Gust Speed -    
Visibility 8 miles    
Events      
Averages and records for this station are not official NWS values.
T = Trace of Precipitation, MM = Missing Value Source: NWS Daily Summary

Daily Weather History Graph

Daily Weather History Graph

Search for Another Location

Airport or City:

Trip Planner

Search our weather history database for the weather conditions in past years. The results will help you decide how hot, cold, wet, or windy it might be!

Date:

Astronomy

Jan. 27, 2013 Rise Set
Actual Time 7:10 AM MST 5:12 PM MST
Civil Twilight 6:41 AM MST 5:41 PM MST
Nautical Twilight 6:08 AM MST 6:13 PM MST
Astronomical Twilight 5:36 AM MST 6:45 PM MST
Moon 6:08 PM MST (1/27) 7:04 AM MST (1/27)
Length of Visible Light 10h 59m
Length of Day
10h 01m
Full, 100% of the Moon is Illuminated
Jan 27
Full
Feb 3
Last Quarter
Feb 10
New
Feb 17
First Quarter
Feb 25
Full

Hourly Weather History & Observations

Time (MST) Temp. Windchill Dew Point Humidity Pressure Visibility Wind Dir Wind Speed Gust Speed Precip Events Conditions
12:06 AM 37.4 °F 32.8 °F 35.6 °F 93% 29.74 in 10.0 mi WSW 5.8 mph - N/A   Mostly Cloudy
12:26 AM 37.4 °F 31.4 °F 35.6 °F 93% 29.74 in 10.0 mi WSW 8.1 mph - N/A   Mostly Cloudy
12:45 AM 35.6 °F 30.7 °F 33.8 °F 93% 29.73 in 7.0 mi West 5.8 mph - N/A   Scattered Clouds
1:06 AM 35.6 °F 30.7 °F 33.8 °F 93% 29.72 in 7.0 mi West 5.8 mph - N/A   Scattered Clouds
1:26 AM 35.6 °F 31.7 °F 33.8 °F 93% 29.72 in 7.0 mi West 4.6 mph - N/A   Mostly Cloudy
1:46 AM 35.6 °F 30.7 °F 33.8 °F 93% 29.73 in 7.0 mi West 5.8 mph - N/A   Scattered Clouds
2:06 AM 35.6 °F 30.7 °F 33.8 °F 93% 29.72 in 7.0 mi West 5.8 mph - N/A   Clear
2:26 AM 35.6 °F 30.7 °F 33.8 °F 93% 29.72 in 5.0 mi WSW 5.8 mph - N/A   Clear
2:46 AM 35.6 °F 30.7 °F 33.8 °F 93% 29.73 in 5.0 mi WSW 5.8 mph - N/A   Scattered Clouds
3:06 AM 35.6 °F - 35.6 °F 100% 29.71 in 5.0 mi Calm Calm - N/A   Mostly Cloudy
3:26 AM 35.6 °F 30.7 °F 33.8 °F 93% 29.71 in 5.0 mi WSW 5.8 mph - N/A   Scattered Clouds
3:45 AM 35.6 °F 31.7 °F 33.8 °F 93% 29.71 in 5.0 mi WSW 4.6 mph - N/A   Clear
4:06 AM 35.6 °F 29.9 °F 33.8 °F 93% 29.71 in 7.0 mi WSW 6.9 mph - N/A   Clear
4:26 AM 35.6 °F 31.7 °F 33.8 °F 93% 29.71 in 7.0 mi SW 4.6 mph - N/A   Clear
4:46 AM 33.8 °F 29.6 °F 32.0 °F 93% 29.71 in 5.0 mi WSW 4.6 mph - N/A   Clear
5:06 AM 33.8 °F 29.6 °F 33.8 °F 100% 29.71 in 7.0 mi SW 4.6 mph - N/A   Clear
5:26 AM 33.8 °F 30.8 °F 32.0 °F 93% 29.70 in 5.0 mi SW 3.5 mph - N/A   Clear
5:46 AM 33.8 °F 28.6 °F 32.0 °F 93% 29.71 in 5.0 mi WSW 5.8 mph - N/A   Clear
6:06 AM 33.8 °F 27.0 °F 32.0 °F 93% 29.71 in 5.0 mi WSW 8.1 mph - N/A   Clear
6:26 AM 33.8 °F 27.0 °F 32.0 °F 93% 29.72 in 5.0 mi WSW 8.1 mph - N/A   Clear
6:46 AM 33.8 °F 28.6 °F 33.8 °F 100% 29.73 in 5.0 mi SW 5.8 mph - N/A   Clear
7:00 AM 33.8 °F 27.7 °F 32.0 °F 93% 29.74 in 5.0 mi SW 6.9 mph - N/A   Clear
7:47 AM 35.6 °F 30.7 °F 32.0 °F 87% 29.76 in 5.0 mi SW 5.8 mph - N/A   Scattered Clouds
4:48 PM 53.6 °F - 35.6 °F 51% 29.72 in 50.0 mi East 5.8 mph - N/A   Partly Cloudy
5:53 PM 44.6 °F 38.8 °F 33.8 °F 66% 29.73 in 50.0 mi SE 11.5 mph - N/A   Partly Cloudy
7:55 PM 39.2 °F 35.0 °F 24.8 °F 56% 29.74 in 20.0 mi South 5.8 mph - N/A   Partly Cloudy
8:27 PM 42.8 °F 38.0 °F 23.0 °F 46% 29.75 in 10.0 mi SSW 8.1 mph - N/A   Clear
8:46 PM 42.8 °F 39.3 °F 23.0 °F 46% 29.75 in 10.0 mi SW 5.8 mph - N/A   Clear
9:06 PM 41.0 °F 33.5 °F 24.8 °F 53% 29.74 in 10.0 mi SSW 13.8 mph - N/A   Clear
9:26 PM 46.4 °F 39.8 °F 26.6 °F 46% 29.75 in 10.0 mi SSW 16.1 mph - N/A   Clear
9:46 PM 46.4 °F 40.7 °F 26.6 °F 46% 29.75 in 10.0 mi SSW 12.7 mph - N/A   Clear
10:06 PM 46.4 °F 41.1 °F 26.6 °F 46% 29.75 in 10.0 mi South 11.5 mph - N/A   Clear
10:26 PM 42.8 °F 36.6 °F 30.2 °F 61% 29.74 in 10.0 mi South 11.5 mph - N/A   Clear
10:46 PM 42.8 °F 35.8 °F 32.0 °F 66% 29.74 in 10.0 mi South 13.8 mph - N/A   Clear
11:06 PM 42.8 °F 35.4 °F 32.0 °F 66% 29.74 in 10.0 mi South 15.0 mph - N/A   Clear
11:26 PM 42.8 °F 36.2 °F 33.8 °F 70% 29.73 in 10.0 mi South 12.7 mph - N/A   Clear
11:45 PM 42.8 °F 36.2 °F 32.0 °F 66% 29.73 in 10.0 mi South 12.7 mph - N/A   Clear